Flag for Germany Weather past 2 weeks in Neuwied, Rhineland-Palatinate, Germany

Now
50 °F

Scattered clouds.


Feels Like: 45 °F
Forecast: 33 / 60 °F
Wind: 15 mph from Northwest

Location: Buechel

Current Time: Apr 28, 2015 at 5:26:02 PM

Latest Report: Apr 28, 2015 at 4:20 PM


Visibility: N/A

Pressure: 30.04 "Hg

Humidity: 47%

Dew point: 30 °F

Location of NeuwiedLocation

Historic Weather in Neuwied — Graph

°F

Neuwied temperature yesterday

Maximum temperature yesterday: 52 °F (at 12:20 AM)
Minimum temperature yesterday: 41 °F (at 5:20 PM)
Average temperature yesterday: 45 °F

Past Weeks' High & Low Weather Summary

 TemperatureHumidityPressure
High72 °F (Apr 15, 4:20 PM)100% (Apr 25, 11:20 AM)30.45 "Hg (Apr 25, 11:20 AM)
Low36 °F (Apr 18, 4:20 AM)23% (Apr 21, 4:20 PM)29.59 "Hg (Apr 27, 1:20 AM)
Average51 °F60%30.07 "Hg
* Reported Apr 13 3:20 PM — Apr 28 3:20 PM, Neuwied, Weather by CustomWeather, © 2015

Note: Actual official high and low records may vary slightly from our data, if they occured in-between our weather recording intervals... More about our weather records

Advertising

Neuwied weather history for previous 24 hours

 ConditionsComfort  
Time TempWeatherWind HumidityBarometerVisibility
3:20 PM
Tue, Apr 28
50 °FScattered clouds.13 mph43%30.01 "HgN/A
2:20 PM48 °FScattered clouds.12 mph50%30.01 "HgN/A
1:20 PM48 °FScattered clouds.13 mph46%30.01 "HgN/A
12:20 PM48 °FScattered clouds.12 mph46%29.98 "HgN/A
11:20 AM46 °FScattered clouds.9 mph43%29.98 "HgN/A
10:20 AM45 °FScattered clouds.12 mph57%29.95 "HgN/A
9:20 AM43 °FPartly sunny.9 mph71%29.95 "HgN/A
8:49 AM41 °FPartly sunny.9 mph76%29.92 "Hg6 mi
8:20 AM41 °FFog.8 mph81%29.92 "Hg3 mi
7:20 AM36 °FFog.6 mph100%29.89 "Hg2 mi
6:20 AM36 °FFog.5 mph100%29.86 "Hg2 mi
5:20 AM37 °FPassing clouds.6 mph93%29.83 "Hg4 mi
4:20 AM37 °FPassing clouds.7 mph93%29.83 "Hg4 mi
3:20 AM39 °FChilly.6 mph93%29.80 "Hg6 mi
2:20 AM41 °FQuite cool.9 mph81%29.80 "HgN/A
1:20 AM41 °FQuite cool.7 mph81%29.80 "HgN/A
12:20 AM41 °FQuite cool.10 mph81%29.77 "HgN/A
11:20 PM
Mon, Apr 27
41 °FPartly cloudy.12 mph81%29.74 "Hg5 mi
10:20 PM41 °FPartly cloudy.9 mph87%29.74 "Hg5 mi
9:20 PM41 °FBroken clouds.10 mph87%29.74 "Hg5 mi
8:47 PM41 °FPartly sunny.12 mph87%29.74 "Hg5 mi
8:20 PM41 °FPartly sunny.10 mph93%29.74 "Hg5 mi
7:20 PM41 °FBroken clouds.15 mph93%29.71 "Hg4 mi
6:20 PM41 °FLight rain. Mostly cloudy.15 mph93%29.68 "Hg4 mi
5:20 PM41 °FRain. Fog.12 mph100%29.71 "Hg3 mi
Weather by CustomWeather, © 2015

See weather overviewHow to use our weather pages